Regional Weather Roundup
Issued by NWS

Home | Current Version | Previous Version | Text Only | Print | Product List | Glossary On
Versions: 1 2 3 4 5 6 7 8 9 10 11 12 13 14 15 16 17 18 19 20 21 22 23 24 25 26 27 28 29 30 31 32 33 34 35 36 37 38 39 40 41 42 43 44 45 46 47 48 49 50
000
ASUS43 KDTX 290801
RWRMI
MICHIGAN HOURLY REGIONAL WEATHER ROUNDUP
NATIONAL WEATHER SERVICE DETROIT/PONTIAC MI
400 AM EDT TUE JUL 29 2014

NOTE: "FAIR" INDICATES FEW OR NO CLOUDS BELOW 12,000 FEET WITH NO
SIGNIFICANT WEATHER AND/OR OBSTRUCTION TO VISIBILITY.

MIZ047>049-052>055-059>063-066>070-074>076-081>083-290900-
SOUTHEAST LOWER MICHIGAN

CITY           SKY/WX    TMP DP  RH WIND       PRES   REMARKS
ADRIAN         CLEAR     48  45  89 CALM      30.01S
ALMA           CLEAR     48  47  95 CALM      29.99S
ANN ARBOR      CLOUDY    48  46  93 CALM      30.00R
BAD AXE          N/A     45  44  97 CALM      29.96S
CARO           CLEAR     49  48  99 S3        29.97S
DETROIT CITY   CLOUDY    57  47  69 W3        29.98F
DETROIT        MOCLDY    51  46  83 W3        29.99
FLINT          CLEAR     52  47  83 W3        29.98F
GROSSE ILE     PTCLDY    54  48  82 W3        29.97F
HILLSDALE      CLEAR     47  47 100 CALM      30.01S
HOWELL         CLEAR     48  46  93 SW3       29.99F

CITY           SKY/WX    TMP DP  RH WIND       PRES   REMARKS
JACKSON        CLEAR     49  47  93 CALM      30.01S
LAMBERTVILLE   CLEAR     50  46  87 CALM      30.00S
LANSING        CLEAR     50  47  89 W3        30.00S
LAPEER         FAIR      46  45  97 CALM      29.98S
MASON          CLEAR     46  44  95 CALM      30.00S
MONROE         CLEAR     48  48 100 CALM      29.98S
MT. CLEMENS    CLOUDY    56  47  71 W5        29.96F
PONTIAC        CLOUDY    55  46  71 NW3       29.98S
PORT HOPE        N/A     52  49  89 W5        29.93S
PORT HURON     CLOUDY    54  50  87 W3        29.97S
TRI CITIES     CLEAR     52  48  86 W7        29.98F
TROY           CLOUDY    55  48  79 W5        29.99S
SAGINAW HB     CLEAR     52  50  93 W3        29.97F
$$
MIZ043>046-050>051-056>058-064>065-071>073-077>080-290900-
SOUTHWEST LOWER MICHIGAN

CITY           SKY/WX    TMP DP  RH WIND       PRES   REMARKS
BATTLE CREEK   CLEAR     51  47  86 SW5       30.02S
BENTON HARBOR  PTCLDY    48  46  93 CALM      30.03S
BIG RAPIDS     PTCLDY    48  48 100 CALM      29.99S
COLDWATER      CLEAR     50  49  97 CALM      30.02R
FREMONT        CLOUDY    50  49  97 CALM      30.00S
HOLLAND        PTCLDY    52  47  83 W5        30.02S
GRAND RAPIDS   CLEAR     53  50  89 W5        30.01F
IONIA          FAIR      50  48  92 W5        29.99F
KALAMAZOO      CLEAR     50  47  89 CALM      30.02S
LUDINGTON      CLOUDY    57  51  82 W3        29.99S
MARSHALL       CLEAR     47  47  98 CALM      30.01S FOG
MOUNT PLEASANT CLEAR     50  48  93 CALM      29.98S
MUSKEGON       MOCLDY    53  46  77 CALM      30.01F
SOUTH HAVEN    PTCLDY    46  46 100 CALM      30.03R
$$
MIZ016>042-290900-
NORTHERN LOWER MICHIGAN

CITY           SKY/WX    TMP DP  RH WIND       PRES   REMARKS
ALPENA         CLOUDY    55  51  86 W5        29.92F
BEAVER ISLAND  MOCLDY    58  56  95 W3        29.94S
BELLAIRE       CLOUDY    56  50  81 CALM      29.94F
CADILLAC       PTCLDY    50  47  90 SW3       29.96F
CHARLEVOIX     CLOUDY    60  56  84 W8        29.96F
FRANKFORT      MOCLDY    55  51  85 CALM      29.96F
GAYLORD        CLOUDY    51  49  92 SW5       29.94F
GRAYLING       CLOUDY    49  48  96 W7        29.96F
HARBOR SPRINGS CLOUDY    59  54  83 SW5       29.92F
HOUGHTON LAKE  CLEAR     46  45  96 CALM      29.97F
MANISTEE       CLOUDY    52  46  82 CALM      29.98F
OSCODA         CLOUDY    53  50  88 CALM      29.93S
PELLSTON       CLOUDY    58  56  93 W5        29.92F
ROGERS CITY    CLOUDY    56  53  90 SW8       29.92F
TRAVERSE CITY  MOCLDY    56  48  74 CALM      29.94F
$$
MIZ007>008-015-290900-
EASTERN UPPER MICHIGAN

CITY           SKY/WX    TMP DP  RH WIND       PRES   REMARKS
KINROSS        CLOUDY    54  52  94 W5        29.90F
MACKINAC ISLAN CLOUDY    58  55  87 W9        29.90F
NEWBERRY       PTCLDY    52  51  97 NW3       29.92S
S. S. MARIE    CLOUDY    55  51  86 W7        29.89S
MUNISING         N/A     59  54  83 NW12      29.94S
$$
MIZ004>006-011>014-085-290900-
CENTRAL UPPER MICHIGAN

CITY           SKY/WX    TMP DP  RH WIND       PRES   REMARKS
MANISTIQUE     PTCLDY    56  54  92 NW8       29.93F
ESCANABA       CLEAR     55  52  88 NW7       29.95F
MENOMINEE      MOCLDY    57  54  88 CALM      29.97F
SAWYER-GWINN   PTCLDY    53  51  92 W7        29.96F
$$
MIZ001>003-009>011-084-290900-
WESTERN UPPER MICHIGAN

CITY           SKY/WX    TMP DP  RH WIND       PRES   REMARKS
IRON MOUNTAIN  PTCLDY    54  51  90 NW3       29.98F
COPPER HARBOR    N/A     58  52  80 N8        29.95F
$$

ABBREVIATIONS USED IN REMARKS
   TC - TEMPERATURE IN CELSIUS
  WCI - WIND CHILL INDEX
   HX - HEAT INDEX
  VSB - VISIBILITY




USA.gov is the U.S. government's official web portal to all federal, state and local government web resources and services.